Preview of NWS' New Version of Forecast
This preview is not operational and should not be used for support decisions.

Regional Weather Roundup (RWR)

Issued by National Weather Service (NWS)

                            
000
NZUS99 KTBW 221017
RWRTPA
FLORIDA REGIONAL WEATHER ROUNDUP
NATIONAL WEATHER SERVICE TAMPA BAY RUSKIN FL
600 AM EDT MON APR 22 2019

NOTE: "FAIR" INDICATES FEW OR NO CLOUDS BELOW 12,000 FEET WITH NO
SIGNIFICANT WEATHER AND/OR OBSTRUCTIONS TO VISIBILITY.


  
STATION/POSITION



FLZ042-048>051-055-056-060-061-221100-
EXTRA STATIONS
  
CITY           SKY/WX    TMP DP  RH WIND       PRES   REMARKS
Everglades Cty NOT AVBL                                               
CRYSTAL RIVER  FAIR      46  45  93 CALM      30.17S                  
SEBRING        FAIR      54  51  87 N3        30.16R                  
EGLIN AFB      FAIR      44  44  97 CALM      30.16S                  
CANAVERAL      FAIR      60  53  76 NW8       30.14R                  

$$
FLZ001>010-012>015-221100-
PANHANDLE FLORIDA
  
CITY           SKY/WX    TMP DP  RH WIND       PRES   REMARKS
PENSACOLA      FAIR      54  52  93 CALM      30.15S                  
PENSACOLA NAS  FAIR      47  47 100 CALM      30.15R                  
MILTON NAS     FAIR      45  44  97 CALM      30.16S                  
CRESTVIEW      FAIR      43  41  93 CALM      30.18S                  
VALPARAISO     FAIR      50  46  85 CALM      30.16R                  
MARY ESTHER    FAIR      48  45  87 N6        30.14S WCI  46          
PANAMA CITY    FAIR      48  45  89 CALM      30.16S                  
TYNDALL AFB    FAIR      51  49  92 CALM      30.16F                  
APALACHICOLA   FAIR      49  44  83 NE3       30.16F                  

STATION/POSITION


29.2N   88.2W

$$
FLZ011-016>039-221100-
NORTH FLORIDA
  
CITY           SKY/WX    TMP DP  RH WIND       PRES   REMARKS
MARIANNA       FAIR      52  48  86 CALM      30.16S                  
TALLAHASSEE    FAIR      46  43  89 CALM      30.17S                  
PERRY          FAIR      50  49  94 CALM      30.18S                  
CROSS CITY     FAIR      45  43  93 CALM      30.17S                  
GAINESVILLE    FAIR      50  45  83 CALM      30.19R                  
MAYPORT NAS    FAIR      57  49  74 W7        30.16R                  
JACKSONVILLE   FAIR      49  45  86 SW3       30.15R                  
JAX NAS        FAIR      59  46  62 W9        30.16R                  
JAX CRAIG      FAIR      53  47  79 CALM      30.16R                  
ST AUGUSTINE   FAIR      55  48  77 MISG      30.17R                  

STATION/POSITION


KEATON BEACH
31.4N   80.9W
ST AUGUSTINE

$$
FLZ040-043>046-052-053-057-058-063-221100-
CENTRAL FLORIDA
  
CITY           SKY/WX    TMP DP  RH WIND       PRES   REMARKS
OCALA          FAIR      47  45  93 CALM      30.18R                  
LEESBURG       FAIR      54  49  83 N3        30.17R                  
SANFORD        FAIR      55  48  77 NW5       30.16R                  
ORLANDO EXEC   FAIR      58  48  69 CALM      30.16R                  
ORLANDO INTL   FAIR      56  50  80 CALM      30.17R                  
KISSIMMEE      FAIR      53  51  93 CALM      30.17S                  
WINTER HAVEN   FAIR      58  51  78 NE5       30.17S                  
LAKELAND       FAIR      52  48  87 CALM      30.17R                  
BARTOW         FAIR      54  48  82 CALM      30.15S                  

$$
FLZ041-047-054-059-064-221100-
EAST CENTRAL FLORIDA
  
CITY           SKY/WX    TMP DP  RH WIND       PRES   REMARKS
DAYTONA BEACH  FAIR      54  49  83 W3        30.16R                  
JFK SPACE CTR  FAIR      54  51  89 N5        30.15R                  
PATRICK AFB    FAIR      64  56  75 NW12      30.14R                  
MELBOURNE      FAIR      55  50  83 NW6       30.15R                  
VERO BEACH     FAIR      57  51  80 NW3       30.14R                  
FT PIERCE      FAIR      54  51  90 W3        30.14R                  
STUART         FAIR      61  54  77 CALM      30.14R                  

STATION/POSITION


28.9N   78.5W

$$
FLZ042-048>051-055-056-060-061-221100-
WEST CENTRAL FLORIDA
  
CITY           SKY/WX    TMP DP  RH WIND       PRES   REMARKS
BROOKSVILLE    FAIR      47  44  90 S3        30.18R                  
TAMPA          FAIR      60  48  64 CALM      30.17R                  
MACDILL AFB    FAIR      55  49  80 E3        30.16R                  
ST PETERSBURG  FAIR      58  50  75 E6        30.17R                  
ST PET-WHITTED   N/A      0  32 100 MISG      30.16R                  
SARASOTA       FAIR      57  49  74 NE6       30.14R                  

STATION/POSITION


CEDAR KEY
VENICE

$$
FLZ062-065-066-069-070-075>078-221100-
SOUTHWEST FLORIDA AND KEYS
  
CITY           SKY/WX    TMP DP  RH WIND       PRES   REMARKS
PUNTA GORDA    FAIR      52  47  83 NE6       30.15S                  
FT MYERS       FAIR      57  51  80 NE5       30.13R                  
SOUTHWEST INTL FAIR      57  50  77 NE7       30.13R                  
NAPLES         FAIR      60  55  83 NE5       30.12R                  
MARATHON       FAIR      72  57  59 NE3       30.10R                  
KEY WEST NAS   FAIR      71  58  63 NE5       30.10R                  
KEY WEST INTL  FAIR      68  60  75 NE3       30.10S                  

STATION/POSITION


VENICE
SAND KEY
SOMBRERO KEY

$$
FLZ067-068-071>074-221100-
SOUTHEAST FLORIDA 
  
CITY           SKY/WX    TMP DP  RH WIND       PRES   REMARKS
W PALM BEACH   FAIR      65  46  50 CALM      30.13R                  
POMPANO BEACH  FAIR      72  53  51 NE7       30.12R                  
FT LAUDER-EXEC FAIR      69  56  62 N3        30.12R                  
FT LAUDERDALE  FAIR      69  55  60 NE5       30.11R                  
PEMBROKE PINES FAIR      66  59  78 N6        30.13R                  
OPA LOCKA      MOCLDY    69  59  70 N5        30.12R                  
MIAMI          FAIR      70  58  65 N5        30.11R                  
WEST KENDALL   MOCLDY    64  60  87 CALM      30.11R                  
HOMESTEAD      CLOUDY    67  62  84 N3        30.10R                  

STATION/POSITION


LAKE WORTH
SETTLEMENT POINT

$$